Rochelle, IL

10:55 PM CDT on April 28, 2017 (GMT -0500)
Rochelle

Weather History for KRPJ - February, 2013

Change the Weather History Date:

Saturday, February 16, 2013

  Actual Average (KRFD) Record (KRFD)
Temperature  
Mean Temperature 15 °F -  
Max Temperature 20 °F 31 °F 57 °F (1921)
Min Temperature 10 °F 15 °F -10 °F (1958)
Degree Days  
Heating Degree Days 50    
Moisture  
Dew Point 7 °F    
Average Humidity 71    
Maximum Humidity 85    
Minimum Humidity 61    
Precipitation  
Precipitation 0.00 in - - ()
Sea Level Pressure  
Sea Level Pressure 30.17 in    
Wind  
Wind Speed 11 mph (NW)    
Max Wind Speed 18 mph    
Max Gust Speed 22 mph    
Visibility 10 miles    
Events      
Averages and records for this station are not official NWS values.
T = Trace of Precipitation, MM = Missing Value Source: NWS Daily Summary

Daily Weather History Graph

Daily Weather History Graph

Search for Another Location

Airport or City:

Trip Planner

Search our weather history database for the weather conditions in past years. The results will help you decide how hot, cold, wet, or windy it might be!

Date:

Astronomy

Feb. 16, 2013 Rise Set
Actual Time 6:50 AM CST 5:31 PM CST
Civil Twilight 6:21 AM CST 5:59 PM CST
Nautical Twilight 5:49 AM CST 6:32 PM CST
Astronomical Twilight 5:16 AM CST 7:04 PM CST
Moon 9:56 AM CST (2/16) No Moon Set
Length of Visible Light 11h 37m
Length of Day
10h 40m
Waxing Crescent, 39% of the Moon is Illuminated
Feb 16
Waxing Crescent
Feb 17
First Quarter
Feb 25
Full
Mar 4
Last Quarter
Mar 11
New

Hourly Weather History & Observations

Time (CST) Temp. Windchill Dew Point Humidity Pressure Visibility Wind Dir Wind Speed Gust Speed Precip Events Conditions
12:15 AM 16.9 °F 0.8 °F 9.3 °F 72% 30.19 in 10.0 mi NW 18.4 mph - N/A   Clear
12:35 AM 16.5 °F 1.3 °F 8.6 °F 71% 30.19 in 10.0 mi NNW 16.1 mph - N/A   Clear
12:55 AM 16.2 °F 1.3 °F 8.6 °F 72% 30.20 in 10.0 mi NNW 15.0 mph - N/A   Clear
1:15 AM 15.8 °F 2.1 °F 8.4 °F 73% 30.19 in 10.0 mi NNW 12.7 mph - N/A   Clear
1:35 AM 15.4 °F 1.0 °F 8.1 °F 73% 30.19 in 10.0 mi NNW 13.8 mph - N/A   Clear
1:55 AM 14.9 °F 2.3 °F 7.0 °F 71% 30.19 in 10.0 mi NNW 10.4 mph - N/A   Clear
2:15 AM 14.9 °F 0.9 °F 7.0 °F 71% 30.19 in 10.0 mi NNW 12.7 mph - N/A   Clear
2:35 AM 14.5 °F 0.5 °F 6.6 °F 71% 30.19 in 10.0 mi NNW 12.7 mph 18.4 mph N/A   Clear
2:55 AM 14.2 °F 1.4 °F 6.8 °F 73% 30.18 in 10.0 mi NW 10.4 mph 18.4 mph N/A   Clear
3:15 AM 13.8 °F 0.2 °F 6.4 °F 72% 30.17 in 10.0 mi NNW 11.5 mph - N/A   Clear
3:35 AM 13.8 °F 1.8 °F 6.1 °F 71% 30.17 in 10.0 mi NW 9.2 mph - N/A   Clear
3:55 AM 13.5 °F 0.5 °F 5.7 °F 71% 30.17 in 10.0 mi NW 10.4 mph 16.1 mph N/A   Clear
4:15 AM 13.1 °F 0.9 °F 6.1 °F 74% 30.17 in 10.0 mi NW 9.2 mph - N/A   Clear
4:35 AM 13.1 °F 1.8 °F 5.9 °F 73% 30.17 in 10.0 mi NW 8.1 mph - N/A   Clear
5:35 AM 12.6 °F 2.2 °F 6.4 °F 77% 30.17 in 10.0 mi NW 6.9 mph - N/A   Clear
5:55 AM 12.2 °F 0.7 °F 6.3 °F 77% 30.17 in 10.0 mi NW 8.1 mph - N/A   Clear
6:15 AM 12.2 °F 1.7 °F 6.4 °F 78% 30.17 in 10.0 mi NW 6.9 mph - N/A   Clear
6:35 AM 12.2 °F 1.7 °F 6.3 °F 77% 30.17 in 10.0 mi WNW 6.9 mph - N/A   Clear
6:55 AM 12.2 °F 1.7 °F 6.6 °F 78% 30.17 in 10.0 mi WNW 6.9 mph - N/A   Clear
7:35 AM 13.1 °F 0.9 °F 7.2 °F 77% 30.18 in 10.0 mi WNW 9.2 mph - N/A   Clear
7:55 AM 14.0 °F 2.0 °F 7.7 °F 76% 30.18 in 10.0 mi WNW 9.2 mph - N/A   Clear
8:15 AM 14.7 °F 3.8 °F 7.5 °F 73% 30.18 in 10.0 mi WNW 8.1 mph - N/A   Clear
8:35 AM 15.3 °F 3.5 °F 8.1 °F 73% 30.18 in 10.0 mi WNW 9.2 mph - N/A   Clear
8:55 AM 16.0 °F 3.6 °F 8.1 °F 71% 30.18 in 10.0 mi WNW 10.4 mph - N/A   Clear
9:15 AM 16.7 °F 5.3 °F 8.6 °F 70% 30.18 in 10.0 mi West 9.2 mph - N/A   Clear
9:35 AM 17.4 °F 4.7 °F 7.7 °F 66% 30.18 in 10.0 mi West 11.5 mph - N/A   Clear
12:15 PM 19.9 °F 6.7 °F 9.7 °F 64% 30.14 in 10.0 mi NW 13.8 mph 21.9 mph N/A   Mostly Cloudy
12:35 PM 20.5 °F 8.6 °F 9.3 °F 62% 30.13 in 10.0 mi WNW 11.5 mph 20.7 mph N/A   Overcast
12:55 PM 19.4 °F 7.9 °F 8.8 °F 63% 30.14 in 10.0 mi NW 10.4 mph 17.3 mph N/A   Mostly Cloudy
1:15 PM 19.4 °F 6.6 °F 9.1 °F 64% 30.13 in 10.0 mi NW 12.7 mph 20.7 mph N/A   Mostly Cloudy
1:35 PM 19.8 °F 5.9 °F 9.3 °F 64% 30.13 in 10.0 mi WNW 15.0 mph 19.6 mph N/A   Mostly Cloudy
1:55 PM 20.3 °F 6.6 °F 8.6 °F 61% 30.13 in 10.0 mi NW 15.0 mph - N/A   Mostly Cloudy
2:15 PM 19.9 °F 6.2 °F 9.0 °F 62% 30.12 in 10.0 mi NW 15.0 mph 21.9 mph N/A   Overcast
2:35 PM 19.4 °F 6.6 °F 9.1 °F 64% 30.13 in 10.0 mi NNW 12.7 mph 18.4 mph N/A   Overcast
2:55 PM 19.4 °F 7.2 °F 8.2 °F 62% 30.13 in 10.0 mi NNW 11.5 mph 18.4 mph N/A   Mostly Cloudy
3:15 PM 19.4 °F 6.6 °F 8.8 °F 63% 30.13 in 10.0 mi NNW 12.7 mph - N/A   Mostly Cloudy
3:55 PM 18.7 °F 5.7 °F 7.9 °F 63% 30.14 in 10.0 mi NNW 12.7 mph - N/A   Scattered Clouds
4:15 PM 18.5 °F 6.1 °F 8.1 °F 64% 30.14 in 10.0 mi NW 11.5 mph - N/A   Scattered Clouds
4:35 PM 18.3 °F 5.9 °F 7.7 °F 63% 30.14 in 10.0 mi NNW 11.5 mph - N/A   Scattered Clouds
4:55 PM 18.0 °F 5.4 °F 7.0 °F 62% 30.14 in 10.0 mi North 11.5 mph 19.6 mph N/A   Scattered Clouds
5:15 PM 17.4 °F 5.4 °F 6.6 °F 63% 30.15 in 10.0 mi NNW 10.4 mph - N/A   Clear
5:55 PM 15.8 °F 5.1 °F 6.6 °F 67% 30.17 in 10.0 mi North 8.1 mph - N/A   Clear
6:15 PM 15.6 °F 4.0 °F 6.4 °F 67% 30.17 in 10.0 mi North 9.2 mph - N/A   Clear
6:35 PM 15.4 °F 4.6 °F 5.9 °F 66% 30.17 in 10.0 mi North 8.1 mph - N/A   Clear
6:55 PM 14.9 °F 3.1 °F 6.8 °F 70% 30.18 in 10.0 mi North 9.2 mph - N/A   Clear
7:15 PM 14.9 °F 4.0 °F 6.3 °F 69% 30.17 in 10.0 mi North 8.1 mph - N/A   Clear
7:35 PM 14.5 °F 3.6 °F 6.4 °F 70% 30.18 in 10.0 mi NNE 8.1 mph - N/A   Clear
7:55 PM 14.2 °F 5.3 °F 6.3 °F 71% 30.18 in 10.0 mi NNE 5.8 mph - N/A   Clear
8:15 PM 13.6 °F 3.5 °F 6.6 °F 74% 30.18 in 10.0 mi NNE 6.9 mph - N/A   Clear
8:55 PM 12.2 °F 6.1 °F 6.6 °F 78% 30.18 in 10.0 mi NE 3.5 mph - N/A   Clear
9:15 PM 12.2 °F - 6.6 °F 78% 30.19 in 10.0 mi Calm Calm - N/A   Clear
9:35 PM 12.0 °F - 7.7 °F 83% 30.19 in 10.0 mi Calm Calm - N/A   Clear
9:55 PM 12.0 °F - 7.3 °F 81% 30.19 in 10.0 mi Calm Calm - N/A   Clear
10:15 PM 11.3 °F - 7.7 °F 85% 30.19 in 10.0 mi Calm Calm - N/A   Clear
10:35 PM 12.2 °F - 5.9 °F 76% 30.19 in 10.0 mi Calm Calm - N/A   Clear
10:55 PM 11.1 °F - 5.5 °F 78% 30.18 in 10.0 mi Calm Calm - N/A   Clear
11:15 PM 10.8 °F - 5.9 °F 81% 30.18 in 10.0 mi Calm Calm - N/A   Clear
11:35 PM 11.1 °F - 4.6 °F 75% 30.18 in 10.0 mi Calm Calm - N/A   Clear
11:55 PM 11.1 °F - 6.8 °F 83% 30.18 in 10.0 mi Calm Calm - N/A   Clear